Victorville, CA

1:46 AM PST on February 21, 2018 (GMT -0800)
Southern California Logistics

Weather History for KVCV - March, 2013

Change the Weather History Date:

Wednesday, March 27, 2013

  Actual Average (KSBD) Record (KSBD)
Temperature  
Mean Temperature 62 °F -  
Max Temperature 73 °F 69 °F 91 °F (2015)
Min Temperature 50 °F 46 °F 39 °F (2012)
Degree Days  
Heating Degree Days 4    
Growing Degree Days 12 (Base 50)    
Moisture  
Dew Point 34 °F    
Average Humidity 38    
Maximum Humidity 67    
Minimum Humidity 20    
Precipitation  
Precipitation 0.00 in - - ()
Sea Level Pressure  
Sea Level Pressure 29.94 in    
Wind  
Wind Speed 11 mph (SW)    
Max Wind Speed 24 mph    
Max Gust Speed 31 mph    
Visibility 10 miles    
Events      
Averages and records for this station are not official NWS values.
T = Trace of Precipitation, MM = Missing Value Source: NWS Daily Summary

Daily Weather History Graph

Daily Weather History Graph

Search for Another Location

Airport or City:

Trip Planner

Search our weather history database for the weather conditions in past years. The results will help you decide how hot, cold, wet, or windy it might be!

Date:

Astronomy

Mar. 27, 2013 Rise Set
Actual Time 6:43 AM PDT 7:06 PM PDT
Civil Twilight 6:17 AM PDT 7:32 PM PDT
Nautical Twilight 5:48 AM PDT 8:01 PM PDT
Astronomical Twilight 5:18 AM PDT 8:32 PM PDT
Moon 7:52 PM PDT (3/27) 6:39 AM PDT (3/27)
Length of Visible Light 13h 14m
Length of Day
12h 23m
Full, 100% of the Moon is Illuminated
Mar 27
Full
Apr 2
Last Quarter
Apr 10
New
Apr 18
First Quarter
Apr 25
Full

Hourly Weather History & Observations

Time (PDT) Temp. Dew Point Humidity Pressure Visibility Wind Dir Wind Speed Gust Speed Precip Events Conditions
12:15 AM 55.4 °F 33.8 °F 44% 29.94 in 10.0 mi SSW 9.2 mph - N/A   Clear
12:35 AM 55.4 °F 33.8 °F 44% 29.94 in 10.0 mi South 9.2 mph - N/A   Clear
12:55 AM 53.6 °F 33.8 °F 47% 29.93 in 10.0 mi South 9.2 mph - N/A   Clear
1:15 AM 53.6 °F 33.8 °F 47% 29.93 in 10.0 mi South 9.2 mph - N/A   Clear
1:35 AM 53.6 °F 33.8 °F 47% 29.92 in 10.0 mi South 8.1 mph - N/A   Clear
1:55 AM 51.8 °F 33.8 °F 50% 29.92 in 10.0 mi SSW 8.1 mph - N/A   Clear
2:15 AM 51.8 °F 32.0 °F 47% 29.92 in 10.0 mi SSW 9.2 mph - N/A   Clear
2:35 AM 53.6 °F 30.2 °F 41% 29.91 in 10.0 mi SSW 10.4 mph - N/A   Clear
2:55 AM 55.4 °F 32.0 °F 41% 29.91 in 10.0 mi SSW 8.1 mph - N/A   Clear
3:15 AM 53.6 °F 32.0 °F 44% 29.90 in 10.0 mi SSW 9.2 mph - N/A   Clear
3:35 AM 53.6 °F 32.0 °F 44% 29.90 in 10.0 mi SSW 9.2 mph - N/A   Clear
3:55 AM 53.6 °F 32.0 °F 44% 29.90 in 10.0 mi SSW 10.4 mph - N/A   Clear
4:15 AM 53.6 °F 32.0 °F 44% 29.89 in 10.0 mi SW 9.2 mph - N/A   Clear
4:35 AM 53.6 °F 33.8 °F 47% 29.89 in 10.0 mi SSW 8.1 mph - N/A   Clear
4:55 AM 53.6 °F 33.8 °F 47% 29.90 in 10.0 mi SSW 8.1 mph - N/A   Clear
5:15 AM 53.6 °F 33.8 °F 47% 29.90 in 10.0 mi SSW 6.9 mph - N/A   Clear
5:35 AM 53.6 °F 33.8 °F 47% 29.91 in 10.0 mi SSW 6.9 mph - N/A   Clear
5:55 AM 53.6 °F 33.8 °F 47% 29.91 in 10.0 mi SW 6.9 mph - N/A   Clear
6:15 AM 51.8 °F 33.8 °F 50% 29.91 in 10.0 mi SW 6.9 mph - N/A   Clear
6:35 AM 51.8 °F 33.8 °F 50% 29.92 in 10.0 mi South 5.8 mph - N/A   Clear
6:55 AM 50.0 °F 32.0 °F 50% 29.92 in 10.0 mi South 4.6 mph - N/A   Clear
7:15 AM 51.8 °F 32.0 °F 47% 29.93 in 10.0 mi South 5.8 mph - N/A   Clear
7:55 AM 53.6 °F 33.8 °F 47% 29.94 in 10.0 mi South 8.1 mph - N/A   Clear
8:15 AM 55.4 °F 35.6 °F 47% 29.94 in 10.0 mi WSW 12.7 mph 16.1 mph N/A   Scattered Clouds
8:35 AM 57.2 °F 35.6 °F 44% 29.95 in 10.0 mi SW 12.7 mph 19.6 mph N/A   Scattered Clouds
8:55 AM 60.8 °F 35.6 °F 39% 29.96 in 10.0 mi SSW 10.4 mph - N/A   Scattered Clouds
9:15 AM 60.8 °F 33.8 °F 36% 29.96 in 7.0 mi WSW 13.8 mph 18.4 mph N/A   Scattered Clouds
9:35 AM 62.6 °F 33.8 °F 34% 29.96 in 10.0 mi WSW 13.8 mph 18.4 mph N/A   Scattered Clouds
9:55 AM 62.6 °F 33.8 °F 34% 29.96 in 10.0 mi WSW 12.7 mph 18.4 mph N/A   Clear
10:15 AM 64.4 °F 33.8 °F 32% 29.96 in 10.0 mi WSW 13.8 mph - N/A   Clear
10:35 AM 66.2 °F 33.8 °F 30% 29.96 in 10.0 mi WSW 15.0 mph 20.7 mph N/A   Scattered Clouds
10:55 AM 66.2 °F 32.0 °F 28% 29.96 in 10.0 mi WSW 13.8 mph 18.4 mph N/A   Scattered Clouds
11:15 AM 69.8 °F 30.2 °F 23% 29.95 in 10.0 mi WSW 16.1 mph 25.3 mph N/A   Scattered Clouds
11:35 AM 69.8 °F 32.0 °F 25% 29.95 in 10.0 mi West 13.8 mph 24.2 mph N/A   Clear
11:55 AM 69.8 °F 30.2 °F 23% 29.95 in 10.0 mi SW 19.6 mph 25.3 mph N/A   Clear
12:15 PM 71.6 °F 30.2 °F 22% 29.94 in 10.0 mi WSW 19.6 mph 26.5 mph N/A   Clear
12:35 PM 71.6 °F 30.2 °F 22% 29.94 in 10.0 mi SW 16.1 mph 26.5 mph N/A   Clear
12:55 PM 73.4 °F 30.2 °F 20% 29.94 in 10.0 mi WSW 15.0 mph 25.3 mph N/A   Clear
1:15 PM 71.6 °F 30.2 °F 22% 29.93 in 10.0 mi WSW 15.0 mph 26.5 mph N/A   Clear
1:35 PM 73.4 °F 30.2 °F 20% 29.93 in 10.0 mi WSW 20.7 mph 25.3 mph N/A   Scattered Clouds
1:55 PM 73.4 °F 30.2 °F 20% 29.93 in 10.0 mi WSW 16.1 mph 28.8 mph N/A   Scattered Clouds
2:15 PM 73.4 °F 30.2 °F 20% 29.92 in 10.0 mi WSW 24.2 mph 31.1 mph N/A   Scattered Clouds
2:35 PM 73.4 °F 30.2 °F 20% 29.92 in 10.0 mi WSW 23.0 mph 27.6 mph N/A   Scattered Clouds
2:55 PM 73.4 °F 30.2 °F 20% 29.92 in 10.0 mi SW 19.6 mph 27.6 mph N/A   Scattered Clouds
3:15 PM 73.4 °F 30.2 °F 20% 29.91 in 10.0 mi WSW 19.6 mph 29.9 mph N/A   Scattered Clouds
3:35 PM 73.4 °F 30.2 °F 20% 29.91 in 10.0 mi WSW 21.9 mph 27.6 mph N/A   Scattered Clouds
3:55 PM 73.4 °F 30.2 °F 20% 29.92 in 10.0 mi SW 18.4 mph 26.5 mph N/A   Clear
4:15 PM 73.4 °F 30.2 °F 20% 29.91 in 10.0 mi WSW 18.4 mph 25.3 mph N/A   Clear
4:35 PM 71.6 °F 30.2 °F 22% 29.91 in 10.0 mi West 15.0 mph 23.0 mph N/A   Clear
4:55 PM 71.6 °F 30.2 °F 22% 29.92 in 10.0 mi WSW 20.7 mph 24.2 mph N/A   Clear
5:15 PM 71.6 °F 32.0 °F 23% 29.92 in 10.0 mi West 16.1 mph 24.2 mph N/A   Clear
5:35 PM 69.8 °F 33.8 °F 27% 29.93 in 10.0 mi WSW 18.4 mph 23.0 mph N/A   Clear
5:55 PM 69.8 °F 35.6 °F 28% 29.93 in 10.0 mi West 18.4 mph 23.0 mph N/A   Clear
6:15 PM 68.0 °F 35.6 °F 30% 29.94 in 10.0 mi WSW 18.4 mph - N/A   Clear
6:35 PM 66.2 °F 35.6 °F 32% 29.94 in 10.0 mi WSW 17.3 mph 21.9 mph N/A   Clear
6:55 PM 64.4 °F 35.6 °F 34% 29.96 in 10.0 mi WSW 12.7 mph 21.9 mph N/A   Clear
7:15 PM 62.6 °F 37.4 °F 39% 29.97 in 10.0 mi SW 10.4 mph - N/A   Clear
7:35 PM 62.6 °F 39.2 °F 42% 29.97 in 10.0 mi South 6.9 mph - N/A   Clear
7:55 PM 60.8 °F 39.2 °F 45% 29.98 in 10.0 mi South 5.8 mph - N/A   Clear
8:15 PM 60.8 °F 39.2 °F 45% 29.99 in 10.0 mi South 8.1 mph - N/A   Clear
8:35 PM 60.8 °F 39.2 °F 45% 30.00 in 10.0 mi SSW 8.1 mph - N/A   Clear
8:55 PM 57.2 °F 39.2 °F 51% 30.00 in 10.0 mi South 6.9 mph - N/A   Clear
9:15 PM 57.2 °F 39.2 °F 51% 30.01 in 10.0 mi South 4.6 mph - N/A   Scattered Clouds
9:35 PM 60.8 °F 37.4 °F 42% 30.01 in 10.0 mi SW 10.4 mph 16.1 mph N/A   Clear
9:55 PM 59.0 °F 37.4 °F 45% 30.02 in 10.0 mi SW 6.9 mph - N/A   Clear
10:15 PM 57.2 °F 39.2 °F 51% 30.03 in 10.0 mi South 5.8 mph - N/A   Clear
10:35 PM 55.4 °F 42.8 °F 63% 30.02 in 10.0 mi South 10.4 mph - N/A   Clear
10:55 PM 53.6 °F 42.8 °F 67% 30.02 in 10.0 mi South 9.2 mph - N/A   Clear
11:15 PM 53.6 °F 42.8 °F 67% 30.02 in 10.0 mi South 9.2 mph - N/A   Clear
11:35 PM 53.6 °F 42.8 °F 67% 30.02 in 10.0 mi South 8.1 mph - N/A   Clear
11:55 PM 53.6 °F 42.8 °F 67% 30.02 in 10.0 mi South 8.1 mph - N/A   Clear